Location: Newark
(20.1200°S, 168.9600°E)
Time: 07:52:45
(UTC+00:00)

Hubble Space Telescope - Pass Details

Date: 25 November 2019
Orbit: 536 x 540 km, 28.5° (Epoch: 08 December)

Event Time Altitude Azimuth Distance (km) Brightness Sun altitude
Exits shadow 16:08:24 37° 213° (SSW) 850 1.7 -23.0°
Maximum altitude 16:08:56 39° 194° (SSW) 823 1.8 -22.9°
Drops below altitude 10° 16:12:51 10° 124° (SE) 1,801 4.6 -22.1°
Sets 16:15:14 0° 116° (ESE) 2,693 5.8 -21.6°
